User: anonymous
Location: Vale
(35.4830°N, 81.3830°W)
Time: 13:35:13
(UTC-04:00)
Language:

Cosmos 2237 Rocket - Orbit

View from above orbital plane
View from above orbital plane
View from above satellite
View from above satellite

Ground track
Ground track

The orbit data is extracted from the following two-line orbital elements,

1 22566U 93016B   14211.81323925 -.00000306  00000-0 -13386-3 0  1124
2 22566 071.0088 115.7651 0012688 291.9018 068.0755 14.14849885102419
Epoch (UTC): 30 July 2014 19:31:03
Eccentricity: 0.0012688
inclination: 71.0088°
perigee height: 833 km
apogee height: 852 km
right ascension of ascending node: 115.7651°
argument of perigee: 291.9018°
revolutions per day: 14.14849885
mean anomaly at epoch: 68.0755°
orbit number at epoch: 10241

The dashed part of the orbit path shows where the satellite is in the earth's shadow,  

DLR